DateTimeUTC,F1_A11,F1_S11,BsB_S11,BsG_S11,BsR_S11,BbsB_S11,BbsG_S11,BbsR_S11,BaB_A11,BaG_A11,BaR_A11,Tu_S11,T_S11,Uu_S11,U_S11,P_S11,T1_A11
2021-10-19T11:00:00Z,00000200,21000000,,,,,,,0000.00,0000.09,0000.24,17.5,24.5,,00.0,0675.4,31.0
2021-10-19T11:01:00Z,00000200,21000000,,,,,,,0000.42,0000.10,0000.01,17.5,24.5,,00.0,0675.4,31.0
2021-10-19T11:02:00Z,00000200,21000000,,,,,,,0000.84,0000.77,0000.82,17.5,24.5,,00.0,0675.4,31.0
2021-10-19T11:03:00Z,00000200,61000000,,,,,,,0000.66,0001.23,0000.52,17.5,24.5,,00.0,0675.4,31.0
2021-10-19T11:04:00Z,00000200,41000000,-000.34,-000.53,0000.14,0000.26,-000.17,0000.13,0001.19,0000.81,0000.32,17.8,24.4,,00.0,0676.3,31.0
2021-10-19T11:05:00Z,00000200,01000000,0000.24,-000.16,0000.07,0000.24,0000.23,-000.10,0000.55,0000.46,0000.45,17.9,24.4,00.0,00.0,0676.3,31.0
2021-10-19T11:06:00Z,00000200,01000000,0000.09,-000.07,0000.13,0000.95,0000.09,-000.10,0000.50,0000.68,0000.50,18.0,24.4,00.1,00.0,0676.3,31.0
2021-10-19T11:07:00Z,00000200,01000000,0000.33,-000.04,0000.26,0000.01,-000.24,-000.11,0000.61,0000.46,0000.27,18.1,24.4,00.2,00.1,0676.4,31.0
2021-10-19T11:08:00Z,00000200,01000000,0000.19,-000.18,-000.13,-000.07,-000.03,-000.11,0000.29,0000.00,0000.25,18.1,24.4,00.2,00.1,0676.4,31.0
2021-10-19T11:09:00Z,00000200,01000000,0001.02,-000.11,-000.02,0000.43,0000.25,-000.03,0000.58,0000.62,0000.15,18.0,24.4,00.3,00.2,0676.4,31.0
2021-10-19T11:10:00Z,00000200,01000000,-000.48,-000.03,0000.30,-000.28,0000.05,0000.15,-000.07,0000.01,0000.43,18.0,24.4,00.4,00.2,0676.4,31.0
2021-10-19T11:11:00Z,00000200,01000000,0000.60,0000.12,0000.15,0000.47,-000.08,-000.03,0000.54,0000.49,-000.09,17.9,24.3,00.5,00.3,0676.4,31.0
2021-10-19T11:12:00Z,00000200,01000000,0000.48,0000.01,0000.05,0000.31,-000.09,-000.14,0000.56,0000.04,0000.29,17.8,24.3,00.5,00.3,0676.3,31.0
2021-10-19T11:13:00Z,00000200,01000000,0000.33,0000.15,0000.16,0000.06,0000.21,-000.01,0000.56,0001.10,0000.65,17.8,24.2,00.6,00.4,0676.3,31.0
2021-10-19T11:14:00Z,00000200,01000000,-000.27,0000.00,0000.03,0000.46,-000.35,0000.34,0000.46,0000.27,0000.32,17.7,24.2,00.8,00.5,0676.3,31.0
2021-10-19T11:15:00Z,00000200,01000000,0000.32,-000.35,0000.05,0000.42,0000.33,-000.23,0000.11,-000.47,-000.03,17.7,24.2,00.8,00.5,0676.3,30.9
2021-10-19T11:16:00Z,00000200,01000000,0000.34,-000.03,0000.32,0001.10,-000.03,0000.39,-000.04,0000.85,-000.12,17.7,24.2,00.8,00.5,0676.3,31.0
2021-10-19T11:17:00Z,00000200,01000000,0000.75,0000.40,-000.04,0000.08,0000.12,-000.22,-000.02,-000.21,-000.12,17.7,24.2,00.8,00.6,0676.2,31.0
2021-10-19T11:18:00Z,00000200,01000000,0000.75,0000.10,0000.40,0000.50,-000.09,0000.13,0000.28,0000.16,0000.17,17.7,24.2,00.9,00.6,0676.2,31.0
2021-10-19T11:19:00Z,00000200,01000000,-000.25,-000.03,0000.06,0000.25,0000.05,0000.16,0000.23,0000.48,0000.59,17.8,24.2,00.8,00.5,0676.2,31.0
2021-10-19T11:20:00Z,00000200,01000000,0000.07,0000.14,-000.29,0000.65,0000.17,-000.41,0000.58,0000.36,0000.16,17.8,24.2,01.0,00.7,0676.2,31.0
2021-10-19T11:21:00Z,00000200,01000000,-000.13,0000.02,0000.13,-000.33,0000.21,0000.07,0000.31,0000.43,0000.12,17.9,24.3,01.1,00.7,0676.2,31.0
2021-10-19T11:22:00Z,00000200,01000000,0000.10,0000.22,0000.21,0000.37,-000.12,0000.17,0000.65,0000.15,0000.36,17.9,24.3,01.2,00.8,0676.2,31.0
2021-10-19T11:23:00Z,00000200,01000000,0000.00,0000.15,0000.08,0000.18,0000.34,0000.25,0000.01,0000.44,0000.11,18.0,24.3,01.2,00.8,0676.2,31.0
2021-10-19T11:24:00Z,00000200,01000000,0002.92,0002.33,0002.83,0000.74,0000.84,0000.82,0015.27,0015.17,0012.67,17.9,24.3,02.8,01.9,0676.3,31.0
2021-10-19T11:25:00Z,00000200,00000000,0000.89,0000.86,0000.88,0001.14,0000.13,0000.24,-001.24,-001.14,0000.66,17.9,24.3,03.3,02.2,0676.2,31.0
2021-10-19T11:26:00Z,00000200,01000000,0000.19,0000.10,0000.17,0000.54,0000.23,-000.45,-001.99,-001.44,-000.85,17.8,24.2,02.0,01.3,0676.2,31.0
2021-10-19T11:27:00Z,00000200,01000000,0000.51,-000.27,-000.03,0000.55,-000.11,-000.28,0000.28,-000.36,-000.16,17.8,24.2,01.5,01.0,0676.2,31.0
2021-10-19T11:28:00Z,00000200,01000000,0000.26,0000.03,0000.34,0000.09,-000.07,0000.01,-000.00,0000.10,-000.41,17.8,24.2,01.5,01.0,0676.2,31.0
2021-10-19T11:29:00Z,00000200,01000000,0000.40,0000.35,0000.09,0000.46,0000.07,-000.03,-000.62,-000.49,0000.26,17.7,24.2,01.5,01.0,0676.2,31.0
2021-10-19T11:30:00Z,00000200,01000000,-000.07,-000.00,0000.11,0000.68,0000.06,0000.21,-000.30,-000.55,-000.34,17.7,24.1,01.5,01.0,0676.2,31.0
2021-10-19T11:31:00Z,00000200,01000000,0000.64,-000.06,0000.10,0000.78,0000.03,-000.08,0000.16,0000.12,0000.01,17.7,24.1,01.5,01.0,0676.2,31.0
2021-10-19T11:32:00Z,00000200,01000000,-000.53,-000.01,-000.08,0000.17,0000.03,-000.07,0000.23,0000.23,0000.36,17.8,24.1,01.4,00.9,0676.1,31.0
2021-10-19T11:33:00Z,00000200,01000000,-000.02,-000.12,0000.21,0000.76,-000.12,-000.09,-000.06,-000.29,-000.24,17.8,24.2,01.4,01.0,0676.2,31.0
2021-10-19T11:34:00Z,00000200,01000000,-000.99,-000.14,-000.06,0000.12,-000.19,-000.02,-000.47,-000.05,-000.22,17.9,24.2,01.4,00.9,0676.2,31.0
2021-10-19T11:35:00Z,00000200,01000000,0000.49,-000.05,0000.19,0000.97,-000.01,0000.14,-000.51,-000.02,0000.12,17.9,24.2,01.1,00.8,0676.2,31.0
2021-10-19T11:36:00Z,00000200,01000000,0000.14,0000.03,0000.26,-000.08,-000.05,0000.37,-000.28,-000.67,-000.58,17.9,24.2,01.0,00.7,0676.1,31.0
2021-10-19T11:37:00Z,00000200,01000000,0000.40,0000.19,0000.18,0000.64,-000.02,0000.20,0000.40,0000.13,0000.01,17.9,24.2,01.0,00.7,0676.1,31.0
2021-10-19T11:38:00Z,00000200,01000000,0000.22,-000.36,0000.28,0000.42,-000.22,0000.27,-000.06,0000.21,0000.33,17.9,24.2,01.0,00.7,0676.1,31.0
2021-10-19T11:39:00Z,00000200,01000000,-000.11,0000.07,0000.28,0000.79,0000.07,-000.27,0000.08,-000.05,-000.23,17.8,24.2,01.0,00.7,0676.1,31.0
2021-10-19T11:40:00Z,00000200,01000000,0001.04,0000.08,0000.05,0000.00,-000.32,0000.12,0000.07,-000.08,-000.11,17.8,24.2,00.9,00.6,0676.1,31.0
2021-10-19T11:41:00Z,00000200,01000000,0000.15,0000.10,-000.04,-000.03,-000.06,-000.30,0000.30,-000.03,0000.32,17.7,24.1,00.9,00.6,0676.1,31.0
2021-10-19T11:42:00Z,00000200,01000000,0000.69,0000.08,0000.36,0000.94,-000.05,-000.14,-000.33,0000.39,0000.17,17.7,24.1,00.9,00.6,0676.1,31.0
2021-10-19T11:43:00Z,00000200,01000000,-000.19,-000.04,-000.00,0000.22,-000.03,-000.05,-000.00,-000.15,-000.11,17.7,24.1,01.0,00.7,0676.1,31.0
2021-10-19T11:44:00Z,00000200,01000000,0000.14,-000.10,-000.08,0000.09,0000.05,0000.10,-000.30,-000.10,-000.28,17.7,24.1,00.9,00.6,0676.1,30.9
2021-10-19T11:45:00Z,00000200,01000000,0000.27,0000.07,0000.35,0000.00,-000.17,-000.09,-000.18,-000.20,-000.07,17.6,24.1,00.7,00.5,0676.1,31.0
2021-10-19T11:46:00Z,00000200,01000000,-000.11,0000.26,0000.25,-000.03,-000.09,0000.27,-000.34,-000.24,-000.14,17.7,24.1,00.6,00.4,0676.1,31.0
2021-10-19T11:47:00Z,00000200,01000000,0000.19,0000.04,0000.36,0000.43,0000.23,0000.19,-000.57,-000.05,-000.12,17.7,24.1,00.5,00.3,0676.1,31.0
2021-10-19T11:48:00Z,00000200,01000000,0000.21,0000.22,0000.09,0000.76,-000.29,0000.02,0000.31,-000.27,-000.01,17.7,24.1,00.5,00.4,0676.1,31.0
2021-10-19T11:49:00Z,00000200,01000000,0000.00,0000.22,-000.10,0000.48,-000.09,-000.12,-000.33,-000.36,-000.72,17.8,24.2,00.4,00.3,0676.1,31.0
2021-10-19T11:50:00Z,00000200,01000000,0000.73,-000.09,0000.05,0000.97,-000.06,-000.29,-000.26,0000.03,0000.49,17.9,24.2,00.4,00.3,0676.1,31.0
2021-10-19T11:51:00Z,00000200,01000000,-000.09,-000.26,0000.21,0000.63,0000.23,-000.16,0000.15,-000.27,-000.08,17.9,24.2,00.3,00.2,0676.1,31.0
2021-10-19T11:52:00Z,00000200,01000000,0000.03,-000.18,0000.39,0000.16,0000.06,0000.29,0000.37,0000.23,0000.37,17.9,24.2,00.4,00.2,0676.1,31.0
2021-10-19T11:53:00Z,00000200,01000000,-000.58,-000.00,0000.23,0000.55,-000.21,0000.42,-000.25,0000.05,-000.35,17.9,24.2,00.4,00.3,0676.1,31.0
2021-10-19T11:54:00Z,00000200,01000000,0000.48,-000.11,-000.11,-000.33,-000.15,-000.00,-000.16,-000.35,-000.09,17.9,24.2,00.3,00.2,0676.1,31.0
2021-10-19T11:55:00Z,00000200,01000000,-000.29,0000.05,0000.06,0000.27,-000.07,-000.05,-000.11,0000.18,0000.15,17.8,24.2,00.3,00.2,0676.1,31.0
2021-10-19T11:56:00Z,00000200,01000000,0000.20,0000.02,-000.02,0000.39,0000.09,0000.21,-000.19,-000.17,0000.21,17.8,24.1,00.2,00.1,0676.1,31.0
2021-10-19T11:57:00Z,00000200,41000000,,,,,,,-000.23,-000.41,-000.59,17.8,24.1,00.3,00.2,0676.3,31.0
2021-10-19T11:58:00Z,00000200,61000000,,,,,,,-000.04,-000.12,-000.11,17.5,24.3,00.0,00.0,0675.2,31.0
2021-10-19T11:59:00Z,00000200,21000000,,,,,,,-000.35,-000.09,-000.41,17.5,24.4,,00.0,0675.2,31.0
